Location: Ojai
(34.4480°N, 119.2420°W)
Time: 10:44:42
(UTC-07:00)

Tiangong 2 - Visible Passes

Search period start: 25 March 2019 00:00
Search period end: 04 April 2019 00:00
Orbit: 380 x 389 km, 42.8° (Epoch: 25 March)

Date Brightness Start Highest point End Pass type
(mag) Time Alt. Az. Time Alt. Az. Time Alt. Az.
25 Mar 2.6 05:40:06 23° SSW 05:40:06 23° SSW 05:42:08 10° SSE visible
27 Mar 3.4 20:11:45 10° SSE 20:12:07 11° SSE 20:12:07 11° SSE visible
28 Mar 2.4 20:46:51 10° SW 20:48:40 29° SSW 20:48:40 29° SSW visible
29 Mar 2.4 19:47:53 10° SSW 19:50:27 23° SE 19:52:47 11° E visible
29 Mar 3.8 21:24:03 10° W 21:25:03 18° W 21:25:03 18° W visible
30 Mar 1.0 20:24:22 10° WSW 20:27:29 83° NNW 20:28:57 29° ENE visible
31 Mar 2.7 21:02:01 10° W 21:04:49 29° NNW 21:04:56 29° NNW visible
01 Apr 2.0 20:02:08 10° W 20:05:10 45° NNW 20:08:11 10° NE visible
01 Apr 4.4 21:40:05 10° NW 21:40:45 13° NW 21:40:45 13° NW visible
02 Apr 3.2 20:40:05 10° WNW 20:42:36 22° NNW 20:44:12 15° NNE visible
03 Apr 2.8 19:40:04 10° W 19:42:52 29° NNW 19:45:40 10° NE visible
03 Apr 3.7 21:18:01 10° NW 21:19:46 17° NNW 21:19:46 17° NNW visible
